Year,Month,Day,Hour,Minute,Value (Times are PST for temperature in C)
2012,10,21,00,00,1.30
2012,10,21,00,01,1.20
2012,10,21,00,02,1.30
2012,10,21,00,03,1.30
2012,10,21,00,04,1.30
2012,10,21,00,05,1.30
2012,10,21,00,06,1.30
2012,10,21,00,07,1.30
2012,10,21,00,08,1.30
2012,10,21,00,09,1.20
2012,10,21,00,10,1.20
2012,10,21,00,11,1.20
2012,10,21,00,12,1.20
2012,10,21,00,13,1.30
2012,10,21,00,14,1.30
2012,10,21,00,15,1.30
2012,10,21,00,16,1.30
2012,10,21,00,17,1.30
2012,10,21,00,18,1.30
2012,10,21,00,19,1.30
2012,10,21,00,20,1.30
2012,10,21,00,21,1.30
2012,10,21,00,22,1.30
2012,10,21,00,23,1.30
2012,10,21,00,24,1.30
2012,10,21,00,25,1.30
2012,10,21,00,26,1.30
2012,10,21,00,27,1.30
2012,10,21,00,28,1.30
2012,10,21,00,29,1.30
2012,10,21,00,30,1.30
2012,10,21,00,31,1.30
2012,10,21,00,32,1.30
2012,10,21,00,33,1.30
2012,10,21,00,34,1.20
2012,10,21,00,35,1.20
2012,10,21,00,36,1.30
2012,10,21,00,37,1.30
2012,10,21,00,38,1.30
2012,10,21,00,39,1.30
2012,10,21,00,40,1.30
2012,10,21,00,41,1.30
2012,10,21,00,42,1.30
2012,10,21,00,43,1.30
2012,10,21,00,44,1.40
2012,10,21,00,45,1.40
2012,10,21,00,46,1.40
2012,10,21,00,47,1.30
2012,10,21,00,48,1.30
2012,10,21,00,49,1.30
2012,10,21,00,50,1.30
2012,10,21,00,51,1.30
2012,10,21,00,52,1.40
2012,10,21,00,53,1.40
2012,10,21,00,54,1.40
2012,10,21,00,55,1.30
2012,10,21,00,56,1.30
2012,10,21,00,57,1.30
2012,10,21,00,58,1.30
2012,10,21,00,59,1.20
2012,10,21,01,00,1.20
2012,10,21,01,01,1.20
2012,10,21,01,02,1.20
2012,10,21,01,03,1.20
2012,10,21,01,04,1.20
2012,10,21,01,05,1.20
2012,10,21,01,06,1.20
2012,10,21,01,07,1.20
2012,10,21,01,08,1.20
2012,10,21,01,09,1.20
2012,10,21,01,10,1.20
2012,10,21,01,11,1.20
2012,10,21,01,12,1.20
2012,10,21,01,13,1.20
2012,10,21,01,14,1.20
2012,10,21,01,15,1.20
2012,10,21,01,16,1.20
2012,10,21,01,17,1.20
2012,10,21,01,18,1.20
2012,10,21,01,19,1.20
2012,10,21,01,20,1.20
2012,10,21,01,21,1.20
2012,10,21,01,22,1.20
2012,10,21,01,23,1.20
2012,10,21,01,24,1.20
2012,10,21,01,25,1.20
2012,10,21,01,26,1.20
2012,10,21,01,27,1.20
2012,10,21,01,28,1.20
2012,10,21,01,29,1.20
2012,10,21,01,30,1.30
2012,10,21,01,31,1.30
2012,10,21,01,32,1.30
2012,10,21,01,33,1.30
2012,10,21,01,34,1.30
2012,10,21,01,35,1.30
2012,10,21,01,36,1.30
2012,10,21,01,37,1.40
2012,10,21,01,38,1.40
2012,10,21,01,39,1.40
2012,10,21,01,40,1.40
2012,10,21,01,41,1.40
2012,10,21,01,42,1.40
2012,10,21,01,43,1.40
2012,10,21,01,44,1.40
2012,10,21,01,45,1.50
2012,10,21,01,46,1.50
2012,10,21,01,47,1.50
2012,10,21,01,48,1.50
2012,10,21,01,49,1.50
2012,10,21,01,50,1.50
2012,10,21,01,51,1.50
2012,10,21,01,52,1.50
2012,10,21,01,53,1.50
2012,10,21,01,54,1.50
2012,10,21,01,55,1.50
2012,10,21,01,56,1.50
2012,10,21,01,57,1.50
2012,10,21,01,58,1.50
2012,10,21,01,59,1.50
2012,10,21,02,00,1.50
2012,10,21,02,01,1.50
2012,10,21,02,02,1.60
2012,10,21,02,03,1.60
2012,10,21,02,04,1.60
2012,10,21,02,05,1.60
2012,10,21,02,06,1.60
2012,10,21,02,07,1.60
2012,10,21,02,08,1.60
2012,10,21,02,09,1.60
2012,10,21,02,10,1.60
2012,10,21,02,11,1.70
2012,10,21,02,12,1.70
2012,10,21,02,13,1.70
2012,10,21,02,14,1.70
2012,10,21,02,15,1.70
2012,10,21,02,16,1.70
2012,10,21,02,17,1.70
2012,10,21,02,18,1.70
2012,10,21,02,19,1.70
2012,10,21,02,20,1.70
2012,10,21,02,21,1.70
2012,10,21,02,22,1.70
2012,10,21,02,23,1.70
2012,10,21,02,24,1.70
2012,10,21,02,25,1.70
2012,10,21,02,26,1.70
2012,10,21,02,27,1.70
2012,10,21,02,28,1.70
2012,10,21,02,29,1.60
2012,10,21,02,30,1.60
2012,10,21,02,31,1.60
2012,10,21,02,32,1.60
2012,10,21,02,33,1.60
2012,10,21,02,34,1.60
2012,10,21,02,35,1.60
2012,10,21,02,36,1.60
2012,10,21,02,37,1.50
2012,10,21,02,38,1.50
2012,10,21,02,39,1.50
2012,10,21,02,40,1.50
2012,10,21,02,41,1.50
2012,10,21,02,42,1.50
2012,10,21,02,43,1.60
2012,10,21,02,44,1.50
2012,10,21,02,45,1.50
2012,10,21,02,46,1.50
2012,10,21,02,47,1.50
2012,10,21,02,48,1.50
2012,10,21,02,49,1.50
2012,10,21,02,50,1.50
2012,10,21,02,51,1.50
2012,10,21,02,52,1.50
2012,10,21,02,53,1.50
2012,10,21,02,54,1.50
2012,10,21,02,55,1.50
2012,10,21,02,56,1.50
2012,10,21,02,57,1.50
2012,10,21,02,58,1.50
2012,10,21,02,59,1.50
2012,10,21,03,00,1.40
2012,10,21,03,01,1.40
2012,10,21,03,02,1.50
2012,10,21,03,03,1.50
2012,10,21,03,04,1.50
2012,10,21,03,05,1.50
2012,10,21,03,06,1.50
2012,10,21,03,07,1.50
2012,10,21,03,08,1.50
2012,10,21,03,09,1.50
2012,10,21,03,10,1.50
2012,10,21,03,11,1.50
2012,10,21,03,12,1.50
2012,10,21,03,13,1.50
2012,10,21,03,14,1.50
2012,10,21,03,15,1.60
2012,10,21,03,16,1.60
2012,10,21,03,17,1.60
2012,10,21,03,18,1.60
2012,10,21,03,19,1.60
2012,10,21,03,20,1.60
2012,10,21,03,21,1.60
2012,10,21,03,22,1.60
2012,10,21,03,23,1.60
2012,10,21,03,24,1.60
2012,10,21,03,25,1.60
2012,10,21,03,26,1.60
2012,10,21,03,27,1.60
2012,10,21,03,28,1.60
2012,10,21,03,29,1.60
2012,10,21,03,30,1.60
2012,10,21,03,31,1.60
2012,10,21,03,32,1.70
2012,10,21,03,33,1.70
2012,10,21,03,34,1.70
2012,10,21,03,35,1.70
2012,10,21,03,36,1.70
2012,10,21,03,37,1.70
2012,10,21,03,38,1.70
2012,10,21,03,39,1.70
2012,10,21,03,40,1.70
2012,10,21,03,41,1.70
2012,10,21,03,42,1.70
2012,10,21,03,43,1.80
2012,10,21,03,44,1.80
2012,10,21,03,45,1.80
2012,10,21,03,46,1.80
2012,10,21,03,47,1.80
2012,10,21,03,48,1.80
2012,10,21,03,49,1.80
2012,10,21,03,50,1.80
2012,10,21,03,51,1.80
2012,10,21,03,52,1.80
2012,10,21,03,53,1.80
2012,10,21,03,54,1.80
2012,10,21,03,55,1.80
2012,10,21,03,56,1.80
2012,10,21,03,57,1.80
2012,10,21,03,58,1.80
2012,10,21,03,59,1.70
2012,10,21,04,00,1.70
2012,10,21,04,01,1.70
2012,10,21,04,02,1.70
2012,10,21,04,03,1.70
2012,10,21,04,04,1.80
2012,10,21,04,05,1.80
2012,10,21,04,06,1.80
2012,10,21,04,07,1.80
2012,10,21,04,08,1.80
2012,10,21,04,09,1.90
2012,10,21,04,10,1.90
2012,10,21,04,11,1.90
2012,10,21,04,12,1.90
2012,10,21,04,13,1.80
2012,10,21,04,14,1.80
2012,10,21,04,15,1.80
2012,10,21,04,16,1.70
2012,10,21,04,17,1.70
2012,10,21,04,18,1.70
2012,10,21,04,19,1.70
2012,10,21,04,20,1.70
2012,10,21,04,21,1.70
2012,10,21,04,22,1.70
2012,10,21,04,23,1.70
2012,10,21,04,24,1.60
2012,10,21,04,25,1.60
2012,10,21,04,26,1.60
2012,10,21,04,27,1.60
2012,10,21,04,28,1.60
2012,10,21,04,29,1.60
2012,10,21,04,30,1.50
2012,10,21,04,31,1.50
2012,10,21,04,32,1.50
2012,10,21,04,33,1.50
2012,10,21,04,34,1.40
2012,10,21,04,35,1.40
2012,10,21,04,36,1.40
2012,10,21,04,37,1.40
2012,10,21,04,38,1.40
2012,10,21,04,39,1.30
2012,10,21,04,40,1.30
2012,10,21,04,41,1.30
2012,10,21,04,42,1.30
2012,10,21,04,43,1.30
2012,10,21,04,44,1.30
2012,10,21,04,45,1.20
2012,10,21,04,46,1.20
2012,10,21,04,47,1.20
2012,10,21,04,48,1.20
2012,10,21,04,49,1.20
2012,10,21,04,50,1.20
2012,10,21,04,51,1.20
2012,10,21,04,52,1.30
2012,10,21,04,53,1.30
2012,10,21,04,54,1.30
2012,10,21,04,55,1.30
2012,10,21,04,56,1.40
2012,10,21,04,57,1.40
2012,10,21,04,58,1.40
2012,10,21,04,59,1.40
2012,10,21,05,00,1.40
2012,10,21,05,01,1.40
2012,10,21,05,02,1.30
2012,10,21,05,03,1.30
2012,10,21,05,04,1.30
2012,10,21,05,05,1.30
2012,10,21,05,06,1.30
2012,10,21,05,07,1.40
2012,10,21,05,08,1.40
2012,10,21,05,09,1.40
2012,10,21,05,10,1.40
2012,10,21,05,11,1.50
2012,10,21,05,12,1.50
2012,10,21,05,13,1.50
2012,10,21,05,14,1.50
2012,10,21,05,15,1.60
2012,10,21,05,16,1.60
2012,10,21,05,17,1.60
2012,10,21,05,18,1.70
2012,10,21,05,19,1.60
2012,10,21,05,20,1.60
2012,10,21,05,21,1.60
2012,10,21,05,22,1.50
2012,10,21,05,23,1.50
2012,10,21,05,24,1.40
2012,10,21,05,25,1.40
2012,10,21,05,26,1.30
2012,10,21,05,27,1.30
2012,10,21,05,28,1.30
2012,10,21,05,29,1.20
2012,10,21,05,30,1.20
2012,10,21,05,31,1.20
2012,10,21,05,32,1.20
2012,10,21,05,33,1.20
2012,10,21,05,34,1.20
2012,10,21,05,35,1.20
2012,10,21,05,36,1.20
2012,10,21,05,37,1.30
2012,10,21,05,38,1.30
2012,10,21,05,39,1.40
2012,10,21,05,40,1.40
2012,10,21,05,41,1.40
2012,10,21,05,42,1.40
2012,10,21,05,43,1.40
2012,10,21,05,44,1.40
2012,10,21,05,45,1.40
2012,10,21,05,46,1.40
2012,10,21,05,47,1.40
2012,10,21,05,48,1.30
2012,10,21,05,49,1.30
2012,10,21,05,50,1.30
2012,10,21,05,51,1.30
2012,10,21,05,52,1.30
2012,10,21,05,53,1.30
2012,10,21,05,54,1.30
2012,10,21,05,55,1.30
2012,10,21,05,56,1.40
2012,10,21,05,57,1.50
2012,10,21,05,58,1.60
2012,10,21,05,59,1.70
2012,10,21,06,00,1.80
2012,10,21,06,01,1.80
2012,10,21,06,02,1.80
2012,10,21,06,03,1.80
2012,10,21,06,04,1.80
2012,10,21,06,05,1.80
2012,10,21,06,06,1.70
2012,10,21,06,07,1.70
2012,10,21,06,08,1.70
2012,10,21,06,09,1.70
2012,10,21,06,10,1.80
2012,10,21,06,11,1.80
2012,10,21,06,12,1.80
2012,10,21,06,13,1.80
2012,10,21,06,14,1.80
2012,10,21,06,15,1.80
2012,10,21,06,16,1.80
2012,10,21,06,17,1.80
2012,10,21,06,18,1.80
2012,10,21,06,19,1.80
2012,10,21,06,20,1.80
2012,10,21,06,21,1.70
2012,10,21,06,22,1.70
2012,10,21,06,23,1.70
2012,10,21,06,24,1.70
2012,10,21,06,25,1.70
2012,10,21,06,26,1.70
2012,10,21,06,27,1.70
2012,10,21,06,28,1.70
2012,10,21,06,29,1.70
2012,10,21,06,30,1.70
2012,10,21,06,31,1.70
2012,10,21,06,32,1.60
2012,10,21,06,33,1.60
2012,10,21,06,34,1.60
2012,10,21,06,35,1.60
2012,10,21,06,36,1.60
2012,10,21,06,37,1.60
2012,10,21,06,38,1.60
2012,10,21,06,39,1.60
2012,10,21,06,40,1.60
2012,10,21,06,41,1.60
2012,10,21,06,42,1.60
2012,10,21,06,43,1.60
2012,10,21,06,44,1.60
2012,10,21,06,45,1.50
2012,10,21,06,46,1.50
2012,10,21,06,47,1.50
2012,10,21,06,48,1.50
2012,10,21,06,49,1.60
2012,10,21,06,50,1.60
2012,10,21,06,51,1.60
2012,10,21,06,52,1.60
2012,10,21,06,53,1.60
2012,10,21,06,54,1.60
2012,10,21,06,55,1.60
2012,10,21,06,56,1.60
2012,10,21,06,57,1.60
2012,10,21,06,58,1.60
2012,10,21,06,59,1.60
2012,10,21,07,00,1.60
2012,10,21,07,01,1.60
2012,10,21,07,02,1.70
2012,10,21,07,03,1.70
2012,10,21,07,04,1.70
2012,10,21,07,05,1.70
2012,10,21,07,06,1.70
2012,10,21,07,07,1.70
2012,10,21,07,08,1.80
2012,10,21,07,09,1.80
2012,10,21,07,10,1.80
2012,10,21,07,11,1.80
2012,10,21,07,12,1.80
2012,10,21,07,13,1.80
2012,10,21,07,14,1.80
2012,10,21,07,15,1.80
2012,10,21,07,16,1.80
2012,10,21,07,17,1.80
2012,10,21,07,18,1.80
2012,10,21,07,19,1.80
2012,10,21,07,20,1.80
2012,10,21,07,21,1.80
2012,10,21,07,22,1.80
2012,10,21,07,23,1.80
2012,10,21,07,24,1.80
2012,10,21,07,25,1.80
2012,10,21,07,26,1.70
2012,10,21,07,27,1.70
2012,10,21,07,28,1.70
2012,10,21,07,29,1.70
2012,10,21,07,30,1.70
2012,10,21,07,31,1.70
2012,10,21,07,32,1.70
2012,10,21,07,33,1.70
2012,10,21,07,34,1.80
2012,10,21,07,35,1.80
2012,10,21,07,36,1.80
2012,10,21,07,37,1.80
2012,10,21,07,38,1.90
2012,10,21,07,39,1.90
2012,10,21,07,40,1.90
2012,10,21,07,41,1.90
2012,10,21,07,42,2.00
2012,10,21,07,43,1.90
2012,10,21,07,44,1.90
2012,10,21,07,45,1.90
2012,10,21,07,46,1.90
2012,10,21,07,47,2.00
2012,10,21,07,48,2.00
2012,10,21,07,49,1.90
2012,10,21,07,50,1.90
2012,10,21,07,51,1.90
2012,10,21,07,52,1.90
2012,10,21,07,53,1.90
2012,10,21,07,54,1.80
2012,10,21,07,55,1.80
2012,10,21,07,56,1.80
2012,10,21,07,57,1.80
2012,10,21,07,58,1.70
2012,10,21,07,59,1.70
2012,10,21,08,00,1.70
2012,10,21,08,01,1.70
2012,10,21,08,02,1.70
2012,10,21,08,03,1.70
2012,10,21,08,04,1.60
2012,10,21,08,05,1.60
2012,10,21,08,06,1.60
2012,10,21,08,07,1.60
2012,10,21,08,08,1.60
2012,10,21,08,09,1.60
2012,10,21,08,10,1.60
2012,10,21,08,11,1.50
2012,10,21,08,12,1.50
2012,10,21,08,13,1.50
2012,10,21,08,14,1.50
2012,10,21,08,15,1.50
2012,10,21,08,16,1.50
2012,10,21,08,17,1.50
2012,10,21,08,18,1.50
2012,10,21,08,19,1.50
2012,10,21,08,20,1.50
2012,10,21,08,21,1.50
2012,10,21,08,22,1.50
2012,10,21,08,23,1.40
2012,10,21,08,24,1.40
2012,10,21,08,25,1.40
2012,10,21,08,26,1.40
2012,10,21,08,27,1.40
2012,10,21,08,28,1.40
2012,10,21,08,29,1.30
2012,10,21,08,30,1.30
2012,10,21,08,31,1.30
2012,10,21,08,32,1.30
2012,10,21,08,33,1.30
2012,10,21,08,34,1.30
2012,10,21,08,35,1.30
2012,10,21,08,36,1.30
2012,10,21,08,37,1.40
2012,10,21,08,38,1.40
2012,10,21,08,39,1.40
2012,10,21,08,40,1.40
2012,10,21,08,41,1.40
2012,10,21,08,42,1.40
2012,10,21,08,43,1.40
2012,10,21,08,44,1.40
2012,10,21,08,45,1.40
2012,10,21,08,46,1.50
2012,10,21,08,47,1.50
2012,10,21,08,48,1.50
2012,10,21,08,49,1.50
2012,10,21,08,50,1.60
2012,10,21,08,51,1.60
2012,10,21,08,52,1.60
2012,10,21,08,53,1.60
2012,10,21,08,54,1.70
2012,10,21,08,55,1.70
2012,10,21,08,56,1.70
2012,10,21,08,57,1.70
2012,10,21,08,58,1.80
2012,10,21,08,59,1.80
2012,10,21,09,00,1.80
2012,10,21,09,01,1.90
2012,10,21,09,02,1.90
2012,10,21,09,03,2.00
2012,10,21,09,04,2.00
2012,10,21,09,05,2.10
2012,10,21,09,06,2.10
2012,10,21,09,07,2.20
2012,10,21,09,08,2.20
2012,10,21,09,09,2.20
2012,10,21,09,10,2.30
2012,10,21,09,11,2.40
2012,10,21,09,12,2.40
2012,10,21,09,13,2.50
2012,10,21,09,14,2.60
2012,10,21,09,15,2.70
2012,10,21,09,16,2.80
2012,10,21,09,17,2.90
2012,10,21,09,18,3.00
2012,10,21,09,19,3.00
2012,10,21,09,20,3.10
2012,10,21,09,21,3.20
2012,10,21,09,22,3.30
2012,10,21,09,23,3.40
2012,10,21,09,24,3.50
2012,10,21,09,25,3.60
2012,10,21,09,26,3.70
2012,10,21,09,27,3.80
2012,10,21,09,28,3.90
2012,10,21,09,29,4.00
2012,10,21,09,30,4.10
2012,10,21,09,31,4.20
2012,10,21,09,32,4.30
2012,10,21,09,33,4.40
2012,10,21,09,34,4.40
2012,10,21,09,35,4.40
2012,10,21,09,36,4.50
2012,10,21,09,37,4.50
2012,10,21,09,38,4.60
2012,10,21,09,39,4.60
2012,10,21,09,40,4.60
2012,10,21,09,41,4.70
2012,10,21,09,42,4.80
2012,10,21,09,43,4.80
2012,10,21,09,44,4.80
2012,10,21,09,45,4.90
2012,10,21,09,46,5.00
2012,10,21,09,47,5.00
2012,10,21,09,48,5.10
2012,10,21,09,49,5.20
2012,10,21,09,50,5.30
2012,10,21,09,51,5.40
2012,10,21,09,52,5.50
2012,10,21,09,53,5.60
2012,10,21,09,54,5.60
2012,10,21,09,55,5.70
2012,10,21,09,56,5.70
2012,10,21,09,57,5.80
2012,10,21,09,58,5.80
2012,10,21,09,59,5.80
2012,10,21,10,00,5.90
2012,10,21,10,01,5.90
2012,10,21,10,02,6.00
2012,10,21,10,03,6.10
2012,10,21,10,04,6.10
2012,10,21,10,05,6.10
2012,10,21,10,06,6.10
2012,10,21,10,07,6.10
2012,10,21,10,08,6.10
2012,10,21,10,09,6.00
2012,10,21,10,10,6.00
2012,10,21,10,11,6.00
2012,10,21,10,12,6.00
2012,10,21,10,13,6.10
2012,10,21,10,14,6.10
2012,10,21,10,15,6.10
2012,10,21,10,16,6.20
2012,10,21,10,17,6.20
2012,10,21,10,18,6.30
2012,10,21,10,19,6.40
2012,10,21,10,20,6.50
2012,10,21,10,21,6.60
2012,10,21,10,22,6.60
2012,10,21,10,23,6.70
2012,10,21,10,24,6.80
2012,10,21,10,25,6.80
2012,10,21,10,26,6.90
2012,10,21,10,27,6.90
2012,10,21,10,28,7.00
2012,10,21,10,29,7.00
2012,10,21,10,30,7.10
2012,10,21,10,31,7.10
2012,10,21,10,32,7.20
2012,10,21,10,33,7.20
2012,10,21,10,34,7.20
2012,10,21,10,35,7.30
2012,10,21,10,36,7.30
2012,10,21,10,37,7.30
2012,10,21,10,38,7.30
2012,10,21,10,39,7.30
2012,10,21,10,40,7.40
2012,10,21,10,41,7.40
2012,10,21,10,42,7.40
2012,10,21,10,43,7.50
2012,10,21,10,44,7.50
2012,10,21,10,45,7.60
2012,10,21,10,46,7.60
2012,10,21,10,47,7.60
2012,10,21,10,48,7.70
2012,10,21,10,49,7.70
2012,10,21,10,50,7.70
2012,10,21,10,51,7.70
2012,10,21,10,52,7.70
2012,10,21,10,53,7.70
2012,10,21,10,54,7.70
2012,10,21,10,55,7.70
2012,10,21,10,56,7.70
2012,10,21,10,57,7.70
2012,10,21,10,58,7.70
2012,10,21,10,59,7.70
2012,10,21,11,00,7.80
2012,10,21,11,01,7.80
2012,10,21,11,02,7.90
2012,10,21,11,03,7.90
2012,10,21,11,04,7.90
2012,10,21,11,05,8.00
2012,10,21,11,06,8.10
2012,10,21,11,07,8.10
2012,10,21,11,08,8.20
2012,10,21,11,09,8.20
2012,10,21,11,10,8.30
2012,10,21,11,11,8.30
2012,10,21,11,12,8.40
2012,10,21,11,13,8.40
2012,10,21,11,14,8.40
2012,10,21,11,15,8.40
2012,10,21,11,16,8.30
2012,10,21,11,17,8.30
2012,10,21,11,18,8.20
2012,10,21,11,19,8.20
2012,10,21,11,20,8.20
2012,10,21,11,21,8.10
2012,10,21,11,22,8.10
2012,10,21,11,23,8.10
2012,10,21,11,24,8.10
2012,10,21,11,25,8.10
2012,10,21,11,26,8.00
2012,10,21,11,27,8.00
2012,10,21,11,28,8.00
2012,10,21,11,29,8.00
2012,10,21,11,30,8.00
2012,10,21,11,31,8.00
2012,10,21,11,32,8.00
2012,10,21,11,33,7.90
2012,10,21,11,34,7.90
2012,10,21,11,35,7.90
2012,10,21,11,36,7.90
2012,10,21,11,37,7.90
2012,10,21,11,38,8.00
2012,10,21,11,39,8.00
2012,10,21,11,40,8.10
2012,10,21,11,41,8.10
2012,10,21,11,42,8.00
2012,10,21,11,43,8.00
2012,10,21,11,44,8.00
2012,10,21,11,45,8.00
2012,10,21,11,46,8.00
2012,10,21,11,47,8.10
2012,10,21,11,48,8.10
2012,10,21,11,49,8.10
2012,10,21,11,50,8.10
2012,10,21,11,51,8.10
2012,10,21,11,52,8.00
2012,10,21,11,53,8.00
2012,10,21,11,54,8.00
2012,10,21,11,55,7.90
2012,10,21,11,56,7.90
2012,10,21,11,57,7.90
2012,10,21,11,58,7.90
2012,10,21,11,59,7.90
2012,10,21,12,00,7.90
2012,10,21,12,01,7.90
2012,10,21,12,02,7.90
2012,10,21,12,03,7.90
2012,10,21,12,04,7.90
2012,10,21,12,05,7.90
2012,10,21,12,06,8.00
2012,10,21,12,07,8.00
2012,10,21,12,08,8.00
2012,10,21,12,09,8.00
2012,10,21,12,10,8.00
2012,10,21,12,11,8.10
2012,10,21,12,12,8.10
2012,10,21,12,13,8.20
2012,10,21,12,14,8.20
2012,10,21,12,15,8.20
2012,10,21,12,16,8.20
2012,10,21,12,17,8.20
2012,10,21,12,18,8.20
2012,10,21,12,19,8.20
2012,10,21,12,20,8.20
2012,10,21,12,21,8.20
2012,10,21,12,22,8.20
2012,10,21,12,23,8.10
2012,10,21,12,24,8.10
2012,10,21,12,25,8.10
2012,10,21,12,26,8.10
2012,10,21,12,27,8.10
2012,10,21,12,28,8.10
2012,10,21,12,29,8.10
2012,10,21,12,30,8.10
2012,10,21,12,31,8.10
2012,10,21,12,32,8.20
2012,10,21,12,33,8.20
2012,10,21,12,34,8.20
2012,10,21,12,35,8.20
2012,10,21,12,36,8.20
2012,10,21,12,37,8.20
2012,10,21,12,38,8.20
2012,10,21,12,39,8.20
2012,10,21,12,40,8.30
2012,10,21,12,41,8.30
2012,10,21,12,42,8.30
2012,10,21,12,43,8.30
2012,10,21,12,44,8.30
2012,10,21,12,45,8.30
2012,10,21,12,46,8.30
2012,10,21,12,47,8.30
2012,10,21,12,48,8.30
2012,10,21,12,49,8.20
2012,10,21,12,50,8.20
2012,10,21,12,51,8.20
2012,10,21,12,52,8.20
2012,10,21,12,53,8.20
2012,10,21,12,54,8.20
2012,10,21,12,55,8.20
2012,10,21,12,56,8.20
2012,10,21,12,57,8.20
2012,10,21,12,58,8.10
2012,10,21,12,59,8.10
2012,10,21,13,00,8.10
2012,10,21,13,01,8.10
2012,10,21,13,02,8.10
2012,10,21,13,03,8.20
2012,10,21,13,04,8.20
2012,10,21,13,05,8.20
2012,10,21,13,06,8.10
2012,10,21,13,07,8.20
2012,10,21,13,08,8.20
2012,10,21,13,09,8.20
2012,10,21,13,10,8.20
2012,10,21,13,11,8.20
2012,10,21,13,12,8.30
2012,10,21,13,13,8.40
2012,10,21,13,14,8.40
2012,10,21,13,15,8.50
2012,10,21,13,16,8.60
2012,10,21,13,17,8.60
2012,10,21,13,18,8.60
2012,10,21,13,19,8.60
2012,10,21,13,20,8.50
2012,10,21,13,21,8.50
2012,10,21,13,22,8.50
2012,10,21,13,23,8.50
2012,10,21,13,24,8.40
2012,10,21,13,25,8.40
2012,10,21,13,26,8.40
2012,10,21,13,27,8.40
2012,10,21,13,28,8.40
2012,10,21,13,29,8.50
2012,10,21,13,30,8.50
2012,10,21,13,31,8.60
2012,10,21,13,32,8.60
2012,10,21,13,33,8.60
2012,10,21,13,34,8.60
2012,10,21,13,35,8.70
2012,10,21,13,36,8.70
2012,10,21,13,37,8.60
2012,10,21,13,38,8.60
2012,10,21,13,39,8.50
2012,10,21,13,40,8.40
2012,10,21,13,41,8.40
2012,10,21,13,42,8.30
2012,10,21,13,43,8.30
2012,10,21,13,44,8.20
2012,10,21,13,45,8.20
2012,10,21,13,46,8.20
2012,10,21,13,47,8.20
2012,10,21,13,48,8.20
2012,10,21,13,49,8.20
2012,10,21,13,50,8.20
2012,10,21,13,51,8.10
2012,10,21,13,52,8.20
2012,10,21,13,53,8.20
2012,10,21,13,54,8.10
2012,10,21,13,55,8.10
2012,10,21,13,56,8.10
2012,10,21,13,57,8.10
2012,10,21,13,58,8.10
2012,10,21,13,59,8.10
2012,10,21,14,00,8.10
2012,10,21,14,01,8.10
2012,10,21,14,02,8.10
2012,10,21,14,03,8.10
2012,10,21,14,04,8.10
2012,10,21,14,05,8.10
2012,10,21,14,06,8.10
2012,10,21,14,07,8.10
2012,10,21,14,08,8.10
2012,10,21,14,09,8.10
2012,10,21,14,10,8.10
2012,10,21,14,11,8.10
2012,10,21,14,12,8.00
2012,10,21,14,13,8.00
2012,10,21,14,14,8.00
2012,10,21,14,15,7.90
2012,10,21,14,16,7.90
2012,10,21,14,17,7.90
2012,10,21,14,18,7.90
2012,10,21,14,19,7.90
2012,10,21,14,20,7.90
2012,10,21,14,21,7.90
2012,10,21,14,22,7.90
2012,10,21,14,23,7.90
2012,10,21,14,24,7.90
2012,10,21,14,25,7.80
2012,10,21,14,26,7.80
2012,10,21,14,27,7.80
2012,10,21,14,28,7.80
2012,10,21,14,29,7.80
2012,10,21,14,30,7.80
2012,10,21,14,31,7.80
2012,10,21,14,32,7.80
2012,10,21,14,33,7.80
2012,10,21,14,34,7.90
2012,10,21,14,35,7.90
2012,10,21,14,36,7.80
2012,10,21,14,37,7.80
2012,10,21,14,38,7.80
2012,10,21,14,39,7.80
2012,10,21,14,40,7.80
2012,10,21,14,41,7.80
2012,10,21,14,42,7.80
2012,10,21,14,43,7.80
2012,10,21,14,44,7.80
2012,10,21,14,45,7.80
2012,10,21,14,46,7.80
2012,10,21,14,47,7.80
2012,10,21,14,48,7.80
2012,10,21,14,49,7.90
2012,10,21,14,50,7.90
2012,10,21,14,51,7.90
2012,10,21,14,52,7.90
2012,10,21,14,53,7.90
2012,10,21,14,54,7.90
2012,10,21,14,55,7.90
2012,10,21,14,56,7.90
2012,10,21,14,57,7.90
2012,10,21,14,58,7.90
2012,10,21,14,59,7.90
2012,10,21,15,00,8.00
2012,10,21,15,01,8.00
2012,10,21,15,02,8.00
2012,10,21,15,03,8.10
2012,10,21,15,04,8.10
2012,10,21,15,05,8.10
2012,10,21,15,06,8.10
2012,10,21,15,07,8.20
2012,10,21,15,08,8.20
2012,10,21,15,09,8.20
2012,10,21,15,10,8.20
2012,10,21,15,11,8.20
2012,10,21,15,12,8.30
2012,10,21,15,13,8.30
2012,10,21,15,14,8.30
2012,10,21,15,15,8.30
2012,10,21,15,16,8.30
2012,10,21,15,17,8.40
2012,10,21,15,18,8.40
2012,10,21,15,19,8.40
2012,10,21,15,20,8.40
2012,10,21,15,21,8.30
2012,10,21,15,22,8.30
2012,10,21,15,23,8.30
2012,10,21,15,24,8.20
2012,10,21,15,25,8.20
2012,10,21,15,26,8.10
2012,10,21,15,27,8.10
2012,10,21,15,28,8.10
2012,10,21,15,29,8.00
2012,10,21,15,30,7.90
2012,10,21,15,31,7.90
2012,10,21,15,32,7.90
2012,10,21,15,33,7.90
2012,10,21,15,34,7.90
2012,10,21,15,35,8.00
2012,10,21,15,36,8.00
2012,10,21,15,37,8.00
2012,10,21,15,38,8.00
2012,10,21,15,39,8.10
2012,10,21,15,40,8.10
2012,10,21,15,41,8.10
2012,10,21,15,42,8.10
2012,10,21,15,43,8.10
2012,10,21,15,44,8.10
2012,10,21,15,45,8.10
2012,10,21,15,46,8.10
2012,10,21,15,47,8.20
2012,10,21,15,48,8.20
2012,10,21,15,49,8.20
2012,10,21,15,50,8.20
2012,10,21,15,51,8.20
2012,10,21,15,52,8.20
2012,10,21,15,53,8.20
2012,10,21,15,54,8.20
2012,10,21,15,55,8.20
2012,10,21,15,56,8.20
2012,10,21,15,57,8.20
2012,10,21,15,58,8.20
2012,10,21,15,59,8.20
2012,10,21,16,00,8.20
2012,10,21,16,01,8.10
2012,10,21,16,02,8.10
2012,10,21,16,03,8.10
2012,10,21,16,04,8.10
2012,10,21,16,05,8.10
2012,10,21,16,06,8.00
2012,10,21,16,07,8.00
2012,10,21,16,08,8.00
2012,10,21,16,09,8.00
2012,10,21,16,10,8.00
2012,10,21,16,11,8.00
2012,10,21,16,12,8.00
2012,10,21,16,13,8.00
2012,10,21,16,14,8.00
2012,10,21,16,15,8.00
2012,10,21,16,16,8.00
2012,10,21,16,17,8.00
2012,10,21,16,18,7.90
2012,10,21,16,19,7.90
2012,10,21,16,20,7.90
2012,10,21,16,21,7.90
2012,10,21,16,22,7.90
2012,10,21,16,23,7.90
2012,10,21,16,24,7.90
2012,10,21,16,25,7.90
2012,10,21,16,26,7.90
2012,10,21,16,27,7.90
2012,10,21,16,28,7.90
2012,10,21,16,29,7.90
2012,10,21,16,30,7.90
2012,10,21,16,31,7.90
2012,10,21,16,32,7.90
2012,10,21,16,33,7.90
2012,10,21,16,34,7.90
2012,10,21,16,35,7.90
2012,10,21,16,36,7.90
2012,10,21,16,37,7.90
2012,10,21,16,38,7.90
2012,10,21,16,39,7.90
2012,10,21,16,40,7.90
2012,10,21,16,41,7.90
2012,10,21,16,42,7.90
2012,10,21,16,43,7.90
2012,10,21,16,44,7.90
2012,10,21,16,45,7.90
2012,10,21,16,46,8.00
2012,10,21,16,47,7.90
2012,10,21,16,48,7.90
2012,10,21,16,49,7.90
2012,10,21,16,50,7.90
2012,10,21,16,51,7.90
2012,10,21,16,52,7.90
2012,10,21,16,53,7.90
2012,10,21,16,54,7.90
2012,10,21,16,55,7.90
2012,10,21,16,56,8.00
2012,10,21,16,57,8.00
2012,10,21,16,58,8.00
2012,10,21,16,59,8.00
2012,10,21,17,00,8.00
2012,10,21,17,01,8.00
2012,10,21,17,02,8.00
2012,10,21,17,03,8.00
2012,10,21,17,04,8.00
2012,10,21,17,05,7.90
2012,10,21,17,06,7.90
2012,10,21,17,07,7.90
2012,10,21,17,08,7.90
2012,10,21,17,09,7.90
2012,10,21,17,10,7.90
2012,10,21,17,11,7.90
2012,10,21,17,12,7.90
2012,10,21,17,13,7.90
2012,10,21,17,14,7.90
2012,10,21,17,15,7.90
2012,10,21,17,16,7.80
2012,10,21,17,17,7.80
2012,10,21,17,18,7.80
2012,10,21,17,19,7.80
2012,10,21,17,20,7.80
2012,10,21,17,21,7.80
2012,10,21,17,22,7.80
2012,10,21,17,23,7.70
2012,10,21,17,24,7.70
2012,10,21,17,25,7.70
2012,10,21,17,26,7.70
2012,10,21,17,27,7.70
2012,10,21,17,28,7.70
2012,10,21,17,29,7.60
2012,10,21,17,30,7.60
2012,10,21,17,31,7.60
2012,10,21,17,32,7.60
2012,10,21,17,33,7.60
2012,10,21,17,34,7.60
2012,10,21,17,35,7.60
2012,10,21,17,36,7.50
2012,10,21,17,37,7.50
2012,10,21,17,38,7.50
2012,10,21,17,39,7.50
2012,10,21,17,40,7.50
2012,10,21,17,41,7.50
2012,10,21,17,42,7.50
2012,10,21,17,43,7.50
2012,10,21,17,44,7.50
2012,10,21,17,45,7.50
2012,10,21,17,46,7.50
2012,10,21,17,47,7.50
2012,10,21,17,48,7.50
2012,10,21,17,49,7.50
2012,10,21,17,50,7.50
2012,10,21,17,51,7.50
2012,10,21,17,52,7.50
2012,10,21,17,53,7.50
2012,10,21,17,54,7.50
2012,10,21,17,55,7.50
2012,10,21,17,56,7.50
2012,10,21,17,57,7.50
2012,10,21,17,58,7.50
2012,10,21,17,59,7.50
2012,10,21,18,00,7.50
2012,10,21,18,01,7.50
2012,10,21,18,02,7.50
2012,10,21,18,03,7.50
2012,10,21,18,04,7.50
2012,10,21,18,05,7.50
2012,10,21,18,06,7.50